Tracking 20719 objects as of 25-May-2020
HD Live streaming from Space Station
objects crossing your sky now

LES 6

Track LES 6 now!
LES 6 is classified as:


NORAD ID: 3431
Int'l Code: 1968-081D
Perigee: 35,755.3 km
Apogee: 35,836.0 km
Inclination: 4.4 °
Period: 1,436.2 minutes
Semi major axis: 42166 km
RCS: 3.1622 m2 (large)
Launch date: September 26, 1968
Source: United States (US)
Launch site: AIR FORCE EASTERN TEST RANGE (AFETR)
aabbcc
Your satellite tracking list
Your tracking list is empty




NASA's NSSDC Master Catalog

Two Line Element Set (TLE):
1  3431U 68081D   20145.62153264 +.00000138 +00000-0 +00000-0 0  9997
2  3431 004.4024 305.4935 0009566 016.7617 355.0931 01.00265050098585
Source of the keplerian elements: AFSPC